Regional Weather Roundup
Issued by NWS Wakefield, VA

Home | Current Version | Previous Version | Graphics & Text | Print | Product List | Glossary On
Versions: 1 2 3 4 5 6 7 8 9 10 11 12 13 14 15 16 17 18 19 20 21 22 23 24 25 26 27 28 29 30 31 32 33 34 35 36 37 38 39 40 41 42 43 44 45 46 47 48 49 50
000
ASUS41 KAKQ 270315
RWRAKQ

REGIONAL WEATHER ROUNDUP
NATIONAL WEATHER SERVICE WAKEFIELD VA
1100 PM EDT TUE MAY 26 2015

Note: "fair" indicates few or no clouds below 12,000 feet with no
significant weather and/or obstructions to visibility. * = Denotes
station may not report precipitation (e.g., rain,snow,etc.),
thunder or fog.

VAZ042-051-052>054-056-270400-
NORTHERN VIRGINIA

CITY           SKY/WX    TMP DP  RH WIND       PRES   REMARKS
WASH NATIONAL  MOCLDY    79  68  69 S10       30.16R
DULLES         MOCLDY    78  67  68 S6        30.15R
FORT BELVOIR   PTCLDY    75  68  79 SE5       30.15S
QUANTICO       PTCLDY    77  69  76 S10       30.16S
FREDERICKSBRG* MOCLDY    78  68  71 S5        30.15S
STAFFORD*      MOCLDY    76  66  72 S6        30.20S
WARRENTON      PTCLDY    78  70  75 S5        30.15S
CULPEPER*      CLOUDY    76  67  75 S5        30.16S
MANASSAS*      CLOUDY    77  70  78 S6        30.15S
LEESBURG*      CLOUDY    77  72  83 S6        30.16R
WINCHESTER     MOCLDY    72  66  83 SW3       30.15S
FRONT ROYAL*   FAIR      70  68  94 SW3       30.14S
LURAY*         FAIR      72  72 100 SW6       30.17S
$$

VAZ048-049-060>072-079>083-270400-
CENTRAL AND SOUTH CENTRAL VIRGINIA

CITY           SKY/WX    TMP DP  RH WIND       PRES   REMARKS
RICHMOND       PTCLDY    76  67  73 S12       30.19R
CHESTERFIELD*  NOT AVBL
PETERSBURG*    PTCLDY    75  73  92 SE5       30.20S
HANOVER        CLEAR     73  66  78 SE5       30.20R
TAPPAHANNOCK*  CLEAR     72  63  71 SE5       30.19S
QUINTON*       FAIR      75  68  77 S7        30.19S
CHARLOTTSVILLE PTCLDY    75  66  73 SW5       30.17R
GORDONSVILLE*  FAIR      71  67  87 CALM      30.17R
ORANGE*        MOCLDY    75  68  78 SE5       30.18R
LOUISA*        PTCLDY    75  66  73 S3        30.17R
BUMPASS*       FAIR      73  66  81 SE3       30.17S
FARMVILLE*     PTCLDY    73  67  79 S3        30.17S
CREWE*         FAIR      73  67  81 S6        30.20R
FORT PICKETT*  FAIR      73  68  83 S10G17    30.20R
CHASE CITY*    FAIR      78  73  84 S8        30.20S
CLARKSVILLE*   FAIR      75  70  83 S7G17     30.20S
SOUTH HILL*    CLEAR     74  68  81 S12       30.27R
LAWRENCEVILLE* FAIR      75  70  83 S7        30.21R
EMPORIA*       PTCLDY    73  68  83 SE8       30.23S
$$

VAZ088>098-270400-
SOUTHEAST VIRGINIA

CITY           SKY/WX    TMP DP  RH WIND       PRES   REMARKS
NORFOLK        MOCLDY    74  64  71 S16G24    30.24S
VIRGINIA BEACH PTCLDY    74  65  73 S10       30.25R
NORFOLK NAVAL  MOCLDY    79  65  62 S9G20     30.25S
WEST POINT*    CLEAR     78  66  66 S13       30.22R
SALUDA*        FAIR      74  68  80 S10G17    30.20S
NEWPORT NEWS   CLEAR     79  66  64 S12G25    30.23R
LANGLEY AFB    CLEAR     74  67  78 S16G23    30.22S
FORT EUSTIS    CLEAR     74  67  78 S10G20    30.20S
WILLIAMSBURG*  CLEAR     79  70  73 S9G20     30.23R
HR EXEC AP*    FAIR      73  64  73 S10G17    30.26F
FRANKLIN*      CLEAR     73  67  83 S9        30.23F
WAKEFIELD      CLEAR     75  68  78 S8        30.22S
$$

VAZ020-022-025-037-045-270400-
WEST CENTRAL AND SOUTHWEST VIRGINIA

CITY           SKY/WX    TMP DP  RH WIND       PRES   REMARKS
STAUNTON*      CLEAR     68  66  95 CALM      30.21S
WAYNESBORO*    FAIR      67  67 100 CALM      30.21S
HOT SPRINGS VA PTCLDY    64  64  98 S10G17    30.29S
LYNCHBURG      CLEAR     69  65  86 VRB3      30.20S
DANVILLE       PTCLDY    77  67  71 VRB5      30.19S
SOUTH BOSTON*  FAIR      76  68  76 MISG      30.20R
MARTINSVILLE   MOCLDY    67  67 100 CALM      30.23R
ROANOKE        PTCLDY    74  63  68 SE6       30.21S
BLACKSBURG     MOCLDY    67  61  79 CALM      30.27R
DUBLIN*        MOCLDY    71  63  74 CALM      30.24F
MARION*        MOCLDY    73  62  68 SW3       30.27R
HILLSVILLE*    CLOUDY    70  62  76 S6        30.27R
RICHLANDS*     FAIR      71  62  72 S7        30.23R
WISE*          MOCLDY    72  57  60 S8        30.23R
ABINGDON*      CLOUDY    75  63  64 SW6       30.22R
$$

MDZ021>025-VAZ099-100-270400-
SOUTHERN MARYLAND AND THE DELMARVA PENINSULA

CITY           SKY/WX    TMP DP  RH WIND       PRES   REMARKS
PATUXENT RIVER PTCLDY    73  66  78 S8        30.18S
BAY BRIDGE APT   N/A    N/A N/A N/A S12G17    30.18S
LEONARDTOWN    CLEAR     70  64  83 SE8       30.20S
DOVER          PTCLDY    71  68  88 S10       30.17S
GEORGETOWN     PTCLDY    70  64  81 S9        30.22S
EASTON         PTCLDY    74  69  83 S10       30.23S
CAMBRIDGE      PTCLDY    73  66  78 S8G18     30.20S
SALISBURY      CLEAR     69  64  84 S9        30.22S
OCEAN CITY     CLEAR     68  62  81 SW14G22   30.24F
WALLOPS ISLAND CLEAR     68  65  90 S18G29    30.24S
ACCOMACK*      CLEAR     72  68  88 S15       30.23S
$$

NCZ012>017-030>032-270400-
NORTH CENTRAL AND EASTERN NORTH CAROLINA

CITY           SKY/WX    TMP DP  RH WIND       PRES   REMARKS
ROANOKE RAPIDS FAIR      73  68  83 S5        30.23R
RALEIGH        MOCLDY    76  69  79 S10       30.23R
ELIZABETH CITY CLEAR     72  65  78 S10       30.27F
AHOSKIE*       PTCLDY    72  67  82 S8        30.25R
EDENTON*       CLEAR     72  66  80 S10       30.27S
CURRITUCK*     CLEAR     73  64  73 S6        30.28S
KILL DEVIL HLS CLEAR     73  65  77 S8        30.27F
MANTEO         CLEAR     73  66  78 SW15      30.29S
CAPE HATTERAS  CLEAR     73  62  68 S14G21    30.30S
TARBORO*       FAIR      74  68  80 S5        30.26R
GOLDSBORO      CLOUDY    74  69  86 S2        30.24R
WASHINGTON     CLEAR     72  67  82 S7        30.27S
GREENVILLE     CLEAR     73  70  88 S9        30.26S
NEW BERN       PTCLDY    72  66  81 S6        30.29R
WILMINGTON     CLOUDY    76  69  79 S9        30.28R
$$

VAZ048-270400-
ELSEWHERE

CITY           SKY/WX    TMP DP  RH WIND       PRES   REMARKS
HARRISBURG PA  MOCLDY    76  67  73 SE7       30.13R
BALTIMORE      PTCLDY    72  65  78 VRB3      30.16R
ANNAPOLIS      CLEAR     72  66  81 S16G25    30.17S
ANDREWS AFB    PTCLDY    72  66  81 SE10      30.16S
PHILADELPHIA   PTCLDY    75  63  66 S12       30.18S
HENDERSON NC   MOCLDY    75  67  76 S9        30.23R
GREENSBORO     CLOUDY    78  64  61 S12       30.21R
ROCKY MOUNT    PTCLDY    74  69  85 S8        30.24R
$$

VAZ100-270400-
MARINE

STATION/POSITION TIME  TEMP    WIND        PRES    WAVE   SWELL
                       AIR SEA DIR/SP/G            HT/PER HT/PER
                 (UTC) (F)     (DEG/KT/KT) (MB)    (FT/S) (FT/S)
BRANDYWINE LGT   0200   69 65  200/ 17/ 19 1023.1R
CAPE MAY NJ      0200   66 69  170/  9/ 15 1023.1R
LEWES DE         0200   71 64  200/ 10/ 14 1023.1R
15NM E FENWICK I 0250   65 61              1023.6F   3/ 4
OCEAN-CITY-INLET 0200   63 63  220/  8/  9 1023.9R
WACHAPREAGUE VA  0200   72 77  200/ 16/ 22 1023.7R
THOMAS POINT MD  0300   71 69  170/ 17/ 18 1022.2R
GOOSES REEF MD   0300   70 68  180/ 17/ 21 1022.6S   2/ 3
COVE POINT MD    0200   70     190/ 17/ 19 1022.8R
SOLOMONS ISLAND  0200      71                N/A
BISHOPS HEAD MD  0200   73 72  160/ 18/ 20 1022.1R
PINEY POINT MD   0200          160/ 10/ 11   N/A
CAMBRIDGE MD     0200   74 71  170/  5/ 13 1022.3R
LEWISETTA VA     0200   72 71              1022.0R
RAPPAHANNOCK LGT 0200          160/ 19/ 20 1023.6R
STINGRAY PT      0300   74 71  190/ 16/ 21 1022.6R   2/ 3
YORK RVR RNG VA  0200   76     190/ 21/ 24 1022.4R
YORKTOWN VA      0200   77 72  190/ 12/ 18 1022.9R
JAMESTOWN VA     0300   75 76  180/ 12/ 17 1022.1R
DOMINION TERM VA 0200   75     190/ 18/ 21 1023.6R
KIPTOPEKE VA     0200      76  170/ 15/ 17   N/A
CHES BAY BRIDGE  0200   74 70  170/ 18/ 23 1023.6R
CAPE HENRY VA    0200   74     170/ 10/ 18 1022.9R
CHESAPEAKE LGHT  0200   68     180/ 25/ 25 1024.4R
WILLOUBY STN VA  0200   75     180/ 22/ 26 1024.4R
CAPE HENRY BUOY  0228      63                N/A     3/ 5
1ST LANDING BUOY 0300      70              1023.9R
CAPE CHARLES BUO 0226      66                N/A     3/ 5   2/ 9
OFFSHORE WE BUOY 0211      65                N/A     4/ 5   2/12
64NM E OF VA BCH 0250   66 63  180/ 10/ 12 1025.3R   3/ 6   2/ 6
DUCK PIER NC     0200   73 60  190/ 15/ 21 1024.2R
44100 DUCK FRF   0224      64                N/A     3/ 6
44056 DUCK FRF   0211      62                N/A     2/ 6
OREGON INLET NC  0200   74 78  180/ 16/ 19 1025.6R
HATTERAS NC      0200   74 76  170/ 11/ 15 1025.5R
DIAMOND SHLS NC  0250   74 76  180/ 17/ 21 1025.8F   3/ 5   2/ 9
CAPE LOOKOUT NC  0300   74     170/ 14/ 16 1025.7R
$$


USA.gov is the U.S. government's official web portal to all federal, state and local government web resources and services.